Mahir Nazarov

Chefscout - Zira
28 Nov 2027
Sonntag
Verarbeitung

Persönlichkeit

Anpassungsfähigkeit (7) Ehrgeiz (3) Kontroverse (20) Loyalität (17) Druck (12) Professionalität (2) Fairness (13) Temperament (18)

Profil

Trainerstil Demokratisch
Lizenz Nationale B
Entschlossenheit 8
Menschenführung 8
Motivation 8
Disziplin 4
Arbeitszufriedenheit
100%
Ermüdung
0%
Rolle Chefscout
Gehalt 59.2K p/W
Vertrag 14.03.2029

Leistung

Verhalten Gut
Trainingseffektivität
44%
Spielerentwicklung
15%
Verletzungsprävention
15%
Taktische Umsetzung
40%

Letzte Ereignisse

Nahm an einer Scouting-Besprechung teil jetzt
Nahm an einer Scouting-Besprechung teil 7T her
Nahm an einer Scouting-Besprechung teil 7T her
Nahm an einer Scouting-Besprechung teil 7T her
Nahm an einer Scouting-Besprechung teil 14T her
Nahm an einer Scouting-Besprechung teil 14T her
Nahm an einer Scouting-Besprechung teil 14T her
Nahm an einer Scouting-Besprechung teil 21T her

Aktuell beobachtet

115
Spieler Verein Status Fähigkeit Vertrauen Beobachtet Zuletzt beobachtet Letzte Stimme
Mate Abuladze Kapaz Abgelehnt 103 / 107 65% 1 25.01.2027 -
Anatoliy Nuriyev Neftchi Aktiv 117 / 100 40% 1 24.01.2027 -
Ruslan Baitukov Chelyabinsk Aktiv 111 / 88 40% 1 24.01.2027 -
Martijn Berden Fakel Aktiv 112 / 86 40% 1 23.01.2027 -
Ilja Berkovskiy Torpedo Moscow Aktiv 95 / 116 40% 1 23.01.2027 -
Nikola Ninković Sumgayit Aktiv 97 / 107 40% 1 23.01.2027 -
Ratmir Mashezov Nart Aktiv 67 / 82 40% 1 22.01.2027 -
Victor Stînă Kapaz Abgelehnt 96 / 89 65% 1 11.01.2027 -
Fərid Nəbiyev Kapaz Aktiv 93 / 92 40% 5 31.12.2026 Beobachten
Cavid Dadashov AZAL Aktiv 99 / 97 40% 2 31.12.2026 -
Joni Montiel Gabala Aktiv 104 / 100 40% 1 31.12.2026 -
Razhab Magomedov Dinamo Makhachkala Aktiv 92 / 106 40% 2 28.12.2026 -
Hazem Mastouri Dinamo Makhachkala Aktiv 96 / 115 40% 2 26.12.2026 -
Getterson Alves Ural Aktiv 108 / 115 40% 3 24.12.2026 -
Vincent Aboubakar Neftchi Aktiv 110 / 117 40% 15 22.12.2026 -
Kirill Bogdanets Volna Aktiv 102 / 80 40% 3 22.12.2026 -
Omar Popov Dinamo St Petersburg Aktiv 69 / 95 40% 4 20.12.2026 -
Georgy Gongadze Ufa Aktiv 86 / 90 40% 1 20.12.2026 -
Khyzyr Appaev Aktiv 83 / 75 40% 4 18.12.2026 -
Alexandr Yushin Torpedo Moscow Aktiv 97 / 120 40% 3 17.12.2026 -
Ciaran McGuckin Mladost Lucani Aktiv 76 / 100 40% 1 17.12.2026 -
Ağadadaş Salyanskiy Neftchi Verloren 87 / 103 40% 3 15.12.2026 -
Ilja Azyavin Arsenal Tula Aktiv 104 / 82 40% 1 15.12.2026 -
Alexandr Olenev Nart Aktiv 88 / 75 40% 2 12.12.2026 -
Jordan Rezabala Neftchi Verloren 101 / 109 40% 5 11.12.2026 -
Samson Tovide Colchester United Aktiv 86 / 115 40% 5 11.12.2026 -
Felipe Anderson Palmeiras Aktiv 130 / 133 40% 1 09.12.2026 -
Alessio Curci Inter Aktiv 89 / 104 40% 5 07.12.2026 -
Jurica Poldrugač Rudes Aktiv 105 / 112 40% 1 07.12.2026 Mehr Infos nötig
Daniil Agureev Amkar Aktiv 100 / 75 40% 2 06.12.2026 -
Chinonso Offor Baltika Aktiv 100 / 95 40% 2 05.12.2026 -
Vladislav Morozov Volgar Aktiv 91 / 81 40% 1 02.12.2026 -
Ilja Safronov Rotor Aktiv 92 / 88 40% 2 01.12.2026 -
Lirim Qamili SonderjyskE Aktiv 117 / 107 40% 2 30.11.2026 -
Cosimo Patierno Casarano Aktiv 103 / 110 40% 1 30.11.2026 -
Ismahil Akinade Gabala Verloren 101 / 93 40% 5 28.11.2026 -
Danila Shilov Dinamo Stavropol Aktiv 100 / 81 40% 1 28.11.2026 -
Nikita Kireev Dinamo Vologda Aktiv 87 / 78 40% 3 27.11.2026 -
Denis Rubanov Dinamo Stavropol Aktiv 96 / 93 40% 1 26.11.2026 -
Shahriyar Abdullayev Khazar Aktiv 81 / 98 40% 6 25.11.2026 -
Isaac Matondo Koper Aktiv 113 / 94 40% 2 24.11.2026 -
Stipe Perisic Zadar Aktiv 102 / 77 40% 1 22.11.2026 -
Javid Khalilzade Ravan Aktiv 85 / 89 40% 2 21.11.2026 -
Jonathan Okoronkwo Torpedo Moscow Aktiv 93 / 107 40% 2 19.11.2026 -
Kamran Aliev SKA Khabarovsk Aktiv 113 / 85 40% 1 17.11.2026 -
Alexey Skvortsov Metallurg Aktiv 81 / 100 40% 1 17.11.2026 -
Vlatko Stojanovski Mashal Aktiv 90 / 89 40% 2 16.11.2026 -
Dimitrij Nazarov Qarabag Aktiv 110 / 102 40% 3 16.11.2026 -
Diego Ríos Sokol Aktiv 100 / 87 40% 1 16.11.2026 -
Nikita Simdyankin KDV Tomsk Aktiv 77 / 87 40% 1 15.11.2026 -
Javid Guseynov AZAL Aktiv 98 / 94 40% 2 14.11.2026 -
Soslan Lysenko Spartak Nalchik Aktiv 70 / 81 40% 2 13.11.2026 -
David Karaev KAMAZ Aktiv 97 / 111 40% 1 13.11.2026 -
Dmitry Tsypchenko Torpedo Moscow Aktiv 99 / 88 40% 1 06.11.2026 -
Serder Serderov Aktiv 90 / 93 40% 1 02.11.2026 -
Nikita Kuzin Kaluga Aktiv 70 / 85 40% 1 01.11.2026 -
Agustín Lavezzi Quilmes Aktiv 113 / 102 40% 1 01.11.2026 -
Yusuf Otubanjo Nasaf Aktiv 125 / 109 40% 1 01.11.2026 -
Dávid Zimonyi Fehervar Aktiv 87 / 110 40% 1 31.10.2026 -
Andrey Okladnikov Yenisey Aktiv 84 / 94 40% 1 30.10.2026 -
Dmitry Lesnikov Volgar Aktiv 93 / 80 40% 1 29.10.2026 -
James Kirby Marsaxlokk Aktiv 88 / 80 40% 1 24.10.2026 -
Merabi Uridia Fakel Aktiv 102 / 92 40% 1 23.10.2026 -
Rahid Ismayilov Inter Aktiv 93 / 90 40% 3 22.10.2026 -
Matija Krivokapić Bunyodkor Aktiv 100 / 91 40% 2 22.10.2026 -
Samir Mammadov AZAL Aktiv 83 / 100 40% 2 22.10.2026 -
Yaw Owusu Aktiv 97 / 80 40% 2 21.10.2026 -
Uroš Đuranović Sliema Wanderers Aktiv 95 / 102 40% 1 21.10.2026 -
Vinicius Baiano Naxxar Lions Aktiv 89 / 103 40% 2 20.10.2026 -
Alex Tanque Valletta Aktiv 73 / 81 40% 3 19.10.2026 -
Nikos Karelis Sliema Wanderers Aktiv 100 / 111 40% 1 15.10.2026 -
Juan Cruz Zurbriggen San Telmo Aktiv 96 / 100 40% 1 14.10.2026 -
Eddy Mammadov Khazar Aktiv 87 / 73 40% 1 14.10.2026 -
Gonzalo Rodríguez San Martín Aktiv 103 / 108 40% 1 14.10.2026 -
Jere Vrcić Birkirkara Aktiv 79 / 91 40% 1 13.10.2026 -
Robert Murić Floriana Aktiv 91 / 113 40% 1 12.10.2026 -
Yuri Alves Bragantino Aktiv 92 / 98 40% 1 12.10.2026 -
Cleiton Robozão Hibernians Aktiv 73 / 75 40% 1 09.10.2026 -
Franklin Sasere Birkirkara Aktiv 105 / 76 40% 1 07.10.2026 -
Yeangel Montero Naxxar Lions Aktiv 102 / 105 40% 2 06.10.2026 -
Roman Paparyga Qizilqum Aktiv 103 / 88 40% 1 06.10.2026 -
Toma Tabatadze Kokand 1912 Aktiv 110 / 96 40% 1 06.10.2026 -
Bassala Sambou Neftchi Aktiv 96 / 113 40% 1 05.10.2026 -
Martin Boakye Andijon Aktiv 108 / 99 40% 1 24.09.2026 -
Steven Alfred Torpedo-BelAZ Aktiv 101 / 107 40% 1 24.09.2026 -
Zoran Marušić Neftchi Aktiv 117 / 112 40% 1 23.09.2026 -
Patrick Schmidt Tarxien Rainbows Aktiv 93 / 86 40% 1 22.09.2026 -
Roger Martí Cádiz Aktiv 118 / 116 40% 1 21.09.2026 -
Louis Appéré Cambridge United Aktiv 96 / 107 40% 1 20.09.2026 -
Kaveh Hosseini Padideh Aktiv 99 / 101 40% 1 16.09.2026 -
Marc Gutbub Thun Aktiv 93 / 94 40% 1 15.09.2026 -
Marcelo Sliema Wanderers Aktiv 73 / 86 40% 1 11.09.2026 -
Alejandro Samudio Nacional Aktiv 107 / 107 40% 2 10.09.2026 -
Flamarion Pakhtakor Aktiv 121 / 109 40% 1 10.09.2026 -
Tobías Ganduglia Independiente Rivadavia Aktiv 84 / 100 40% 1 10.09.2026 -
Bruno Gomes Valletta Aktiv 89 / 107 40% 2 06.09.2026 -
Sam Vokes Aktiv 86 / 82 40% 1 04.09.2026 -
Daniel Cummings West Ham United Aktiv 86 / 92 40% 1 04.09.2026 -
Ignacio Sabatini Gimnasia y Esgrima Aktiv 111 / 103 40% 1 04.09.2026 -
Alfredo Troncoso Aktiv 109 / 84 40% 1 03.09.2026 -
Jasur Yaxshiboyev Lokomotiv Aktiv 110 / 105 40% 1 03.09.2026 -
Gonzalo Córdoba Mitre Aktiv 112 / 108 40% 1 03.09.2026 -
Carlos Rivas Aktiv 110 / 105 40% 1 01.09.2026 -
Leonel Flores Boca Juniors Aktiv 97 / 103 40% 1 01.09.2026 -
Namig Medvedev Inter Abgelehnt 98 / 102 65% 1 31.08.2026 -
Nicat Əliyev Gabala Aktiv 83 / 84 40% 1 28.08.2026 -
Mathías Rodríguez Cerrito Aktiv 105 / 91 40% 1 28.08.2026 -
Roi Kehat Sumgayit Aktiv 112 / 116 40% 1 26.08.2026 -
Víctor Salazar Aktiv 96 / 94 40% 1 18.08.2026 -
Carlos Núñez Aktiv 104 / 107 40% 1 18.08.2026 -
Thiago Perugini San Lorenzo Aktiv 98 / 102 40% 1 14.08.2026 -
Lucas González Nacional Aktiv 101 / 111 40% 1 10.08.2026 -
Pedro Lucas Olimpija Ljubljana Aktiv 102 / 117 40% 1 10.08.2026 -
Gabriel Ávalos Aktiv 119 / 118 40% 1 01.08.2026 -
Bruno Duarte Vasco da Gama Aktiv 132 / 133 40% 1 01.08.2026 -